Regional Weather Roundup
Issued by NWS

Home | Current Version | Previous Version | Text Only | Print | Product List | Glossary On
Versions: 1 2 3 4 5 6 7 8 9 10 11 12 13 14 15 16 17 18 19 20 21 22 23 24 25 26 27 28 29 30 31 32 33 34 35 36 37 38 39 40 41 42 43 44 45 46 47 48 49 50
000
ASCA44 KEWX 241120
RWRMX

LATIN AMERICA AND CARIBBEAN REGIONAL WEATHER ROUNDUP
NATIONAL WEATHER SERVICE AUSTIN/SAN ANTONIO TX
600 AM CDT MON JUL 24 2017

NOTE: "FAIR" INDICATED FEW OR NO CLOUDS BELOW 12,000 FEET WITH NO
SIGNIFICANT WEATHER AND/OR OBSTRUCTIONS TO VISIBILITY.

BAJA CALIFORNIA

CITY           SKY/WX    TMP DP  RH WIND       PRES   REMARKS
S.J. DEL CABO    N/A    N/A N/A N/A MISG        N/A
TIJUANA        PTCLDY    68  59  73 W3        29.90F

NORTHWESTERN MEXICO

CITY           SKY/WX    TMP DP  RH WIND       PRES   REMARKS
HERMOSILLO     PTCLDY    82  73  74 CALM      29.88

NORTHEASTERN MEXICO

CITY           SKY/WX    TMP DP  RH WIND       PRES   REMARKS
CHIHUAHUA      MOCLDY    66  63  88 S6        30.13
MATAMOROS      CLEAR     79  75  89 SE7       29.93
MONCLOVA         N/A    N/A N/A N/A MISG        N/A
MONTERREY      MOCLDY    77  68  73 E6        29.92R
REYNOSA        CLEAR     77  72  83 SE5       29.92
CD. VICTORIA     N/A    N/A N/A N/A MISG        N/A

WESTERN MEXICO

CITY           SKY/WX    TMP DP  RH WIND       PRES   REMARKS
AGUASCALIENTES PTCLDY    61  55  82 CALM      30.24
COLIMA           N/A    N/A N/A N/A MISG        N/A
DEL BAJIO      CLOUDY    61  59  94 CALM      30.28R
GUADALAJARA    CLOUDY    63  59  88 S3        30.15
MAZATLAN       CLOUDY    79  73  83 CALM      29.85F
P. VALLARTA    MOCLDY    77  77 100 N7        29.83F
URUAPAN          N/A    N/A N/A N/A MISG        N/A
ZACATECAS      PTCLDY    57  50  77 S7        30.28S

CENTRAL MEXICO

CITY           SKY/WX    TMP DP  RH WIND       PRES   REMARKS
CUERNAVACA       N/A    N/A N/A N/A MISG        N/A
MEXICO CITY    MOCLDY    55  52  88 NE3       30.30F
MORELIA        PTCLDY    55  55 100 CALM      30.22  FOG
POZA RICA        N/A    N/A N/A N/A MISG        N/A
QUERETARO      MOCLDY    59  57  94 CALM      30.29S
S. LUIS POTOSI PTCLDY    59  54  82 CALM      30.24R
TAMPICO        CLEAR     79  75  89 CALM      29.91
TOLUCA         FOG       50  48  93 CALM      30.35S VSB 1/2

SOUTHERN MEXICO

CITY           SKY/WX    TMP DP  RH WIND       PRES   REMARKS
ACAPULCO       CLOUDY    79  75  89 N6        29.85R
B. DE HUATULCO   N/A    N/A N/A N/A MISG        N/A
OAXACA         PTCLDY    63  61  94 CALM      30.21S
P. ESCONDIDO   MOCLDY    75  72  88 NE8       29.95
VERACRUZ       MOCLDY    75  75 100 W5        29.90

YUCATAN PENINSULA

CITY           SKY/WX    TMP DP  RH WIND       PRES   REMARKS
CAMPECHE       MOCLDY    79  75  89 E9        29.89
CANCUN         MOCLDY    79  79 100 CALM      29.95S THUNDER
CHETUMAL       PTCLDY    79  77  94 S7        29.95
CD. DEL CARMEN   N/A    N/A N/A N/A MISG        N/A
COZUMEL        CLOUDY    79  77  94 E6        29.93S
MERIDA         MOCLDY    77  73  88 E7        29.96R
MINATITLAN     PTCLDY    79  75  89 N12       29.85
TAPACHULA      CLEAR     75  75 100 CALM      29.83S
TUX. GUTIERREZ CLOUDY    70  68  94 CALM      29.93

CENTRAL AMERICA

CITY           SKY/WX    TMP DP  RH WIND       PRES   REMARKS
BELIZE CITY    PTCLDY    81  79  94 E5        29.92
MANAGUA        MOSUNNY   77  75  94 SE5       29.83R

CARIBBEAN

CITY           SKY/WX    TMP DP  RH WIND       PRES   REMARKS
ARUBA          PTCLDY    82  77  83 E12       29.92R HX  91
CURACAO        PTCLDY    81  75  83 SE9       29.94S
KINGSTON       PTCLDY    84  75  74 N5        29.94S HX  92
NASSAU         PTCLDY    84  75  74 CALM      30.06R HX  92
SAN JUAN       MOSUNNY   82  75  78 E7        30.06R
SANTO DOMINGO  PTCLDY    77  75  94 N5        30.03R
ST. CROIX      MOSUNNY   82  75  78 E9        30.07R
ST. KITTS      MOSUNNY   84  77  79 E15       30.06R HX  94
ST. MAARTEN    MOSUNNY   84  75  74 E12       30.06  HX  92
ST. THOMAS     SUNNY     82  75  78 E8          N/A

$$




USA.gov is the U.S. government's official web portal to all federal, state and local government web resources and services.